EW0976 Weather Reports


Display with metric or nautical units.
time (UTC)temp
F
wind
direction
speed
MPH
gust
MPH
rain 1hr
in
rain 24hr
in
rain mn
in
humidity
%
barometer
mb
20260509033615 55 228 0.0 1.0 0.00 0.00 0.00 91 982.5
20260509033115 55 175 0.0 1.0 0.00 0.00 0.00 91 982.6
20260509032614 56 59 0.0 2.0 0.00 0.00 0.00 91 982.6
20260509032115 56 213 0.0 0.0 0.00 0.00 0.00 90 982.6
20260509031615 56 213 0.0 0.0 0.00 0.00 0.00 89 982.6
20260509031115 56 191 0.0 0.0 0.00 0.00 0.00 89 982.7
20260509030615 56 216 0.0 1.0 0.00 0.00 0.00 89 982.8
20260509030115 56 254 0.0 2.0 0.00 0.00 0.00 88 982.9
20260509025615 56 175 0.0 2.0 0.00 0.00 0.00 88 982.9
20260509024115 56 321 0.0 3.0 0.00 0.00 0.00 86 982.9
20260509023615 56 166 0.0 1.0 0.00 0.00 0.00 86 983.0
20260509023115 56 182 0.0 2.0 0.00 0.00 0.00 85 983.1
20260509022615 56 341 0.0 3.0 0.00 0.00 0.00 85 983.0
20260509022115 57 258 0.0 1.0 0.00 0.00 0.00 84 983.0
20260509021115 57 346 0.0 2.0 0.00 0.00 0.00 84 983.0
20260509020614 57 205 1.0 3.0 0.00 0.00 0.00 84 983.1
20260509020114 57 209 0.0 2.0 0.00 0.00 0.00 84 983.0
20260509015615 57 315 1.0 2.0 0.00 0.00 0.00 83 982.8
20260509015115 58 353 0.0 1.0 0.00 0.00 0.00 82 982.8
20260509014616 58 319 0.0 1.0 0.00 0.00 0.00 81 982.8
20260509014115 58 266 0.0 0.0 0.00 0.00 0.00 81 982.6
20260509013615 58 332 0.0 0.0 0.00 0.00 0.00 79 982.5
20260509013115 58 332 0.0 2.0 0.00 0.00 0.00 78 982.3
20260509012115 58 49 0.0 3.0 0.00 0.00 0.00 78 982.1
20260509011615 59 83 0.0 1.0 0.00 0.00 0.00 77 982.0
20260509011115 59 140 1.0 3.0 0.00 0.00 0.00 76 982.1
20260509010615 60 255 0.0 1.0 0.00 0.00 0.00 75 982.1
20260509010115 60 233 0.0 3.0 0.00 0.00 0.00 75 982.1
20260509005615 60 7 0.0 2.0 0.00 0.00 0.00 72 982.1
20260509005115 60 322 2.0 3.0 0.00 0.00 0.00 70 982.0
20260509004615 60 345 1.0 3.0 0.00 0.00 0.00 69 982.1
20260509004114 60 26 0.0 2.0 0.00 0.00 0.00 68 982.1
20260509003614 61 319 0.0 0.0 0.00 0.00 0.00 69 982.1
20260509003115 62 274 0.0 0.0 0.00 0.00 0.00 71 981.9
20260509002614 62 283 0.0 0.0 0.00 0.00 0.00 64 981.7
20260509002114 62 336 0.0 0.0 0.00 0.00 0.00 60 981.7
20260509001615 62 336 0.0 0.0 0.00 0.00 0.00 59 981.7
20260509001115 62 336 0.0 0.0 0.00 0.00 0.00 60 981.8
20260509000615 62 336 0.0 0.0 0.00 0.00 0.00 60 981.9
20260509000115 62 336 0.0 1.0 0.00 0.00 0.00 60 981.9
20260508235615 62 256 0.0 0.0 0.00 0.00 0.00 61 981.9
20260508235115 63 256 0.0 0.0 0.00 0.00 0.00 65 982.0
20260508234615 63 256 0.0 0.0 0.00 0.00 0.00 66 981.9
20260508234115 64 256 0.0 0.0 0.00 0.00 0.00 57 981.8
20260508233615 64 256 0.0 0.0 0.00 0.00 0.00 57 981.7
20260508233114 64 256 0.0 0.0 0.00 0.00 0.00 56 981.5
20260508232615 64 256 0.0 0.0 0.00 0.00 0.00 56 981.6
20260508232115 64 237 0.0 0.0 0.00 0.00 0.00 58 981.6
20260508231615 64 213 0.0 0.0 0.00 0.00 0.00 59 981.6
20260508231115 64 213 0.0 0.0 0.00 0.00 0.00 58 981.6
20260508230615 64 213 0.0 2.0 0.00 0.00 0.00 57 981.8
20260508230114 64 171 0.0 2.0 0.00 0.00 0.00 60 981.8
20260508225615 64 334 0.0 1.0 0.00 0.00 0.00 58 981.9
20260508225115 64 218 1.0 6.0 0.00 0.00 0.00 48 981.8
20260508172615 67 227 5.0 12.0 0.00 0.00 0.00 46 984.5
20260508171616 67 221 2.0 6.0 0.00 0.00 0.00 48 984.6
20260508171115 67 237 2.0 6.0 0.00 0.00 0.00 47 984.7
20260508170116 67 196 3.0 8.0 0.00 0.00 0.00 47 985.0
20260508165615 67 251 2.0 9.0 0.00 0.00 0.00 47 984.9
20260508165115 67 238 3.0 8.0 0.00 0.00 0.00 47 985.0
20260508164116 68 200 6.0 13.0 0.00 0.00 0.00 47 985.4
20260508163615 68 177 2.0 9.0 0.00 0.00 0.00 48 985.4
20260508163115 68 172 6.0 9.0 0.00 0.00 0.00 46 985.2
20260508162615 68 175 4.0 7.0 0.00 0.00 0.00 46 985.3
20260508161615 68 181 5.0 8.0 0.00 0.00 0.00 46 985.4
20260508161116 68 204 4.0 9.0 0.00 0.00 0.00 48 985.5
20260508160615 68 183 4.0 9.0 0.00 0.00 0.00 46 985.4
20260508160115 68 251 3.0 7.0 0.00 0.00 0.00 48 985.3
20260508155115 67 214 3.0 10.0 0.00 0.00 0.00 48 985.3
20260508154615 67 183 3.0 7.0 0.00 0.00 0.00 48 985.4
20260508152615 66 231 4.0 8.0 0.00 0.00 0.00 50 985.5
20260508152115 66 184 3.0 8.0 0.00 0.00 0.00 48 985.6
20260508151615 65 286 3.0 10.0 0.00 0.00 0.00 48 985.8
20260508151116 65 214 3.0 7.0 0.00 0.00 0.00 49 985.7
20260508145615 64 206 3.0 8.0 0.00 0.00 0.00 50 985.8
20260508145115 64 245 3.0 8.0 0.00 0.00 0.00 49 985.7
20260508144616 64 241 2.0 8.0 0.00 0.00 0.00 51 985.7
20260508143115 63 206 2.0 6.0 0.00 0.00 0.00 49 985.8
20260508142615 63 209 2.0 6.0 0.00 0.00 0.00 51 985.7
20260508142115 62 212 4.0 9.0 0.00 0.00 0.00 52 986.2
20260508141615 62 202 3.0 8.0 0.00 0.00 0.00 52 986.1
20260508141114 61 249 3.0 8.0 0.00 0.00 0.00 52 986.3
20260508140615 61 225 2.0 8.0 0.00 0.00 0.00 52 986.4
20260508140115 60 216 4.0 10.0 0.00 0.00 0.00 51 986.4
20260508135615 60 207 3.0 7.0 0.00 0.00 0.00 52 986.5
20260508134115 58 206 3.0 8.0 0.00 0.00 0.00 55 986.6
20260508132615 56 239 3.0 6.0 0.00 0.00 0.00 62 986.6
20260508132114 56 196 3.0 6.0 0.00 0.00 0.00 62 986.7
20260508131115 54 196 2.0 5.0 0.00 0.00 0.00 64 986.8
20260508130115 53 179 3.0 6.0 0.00 0.00 0.00 68 986.8
20260508125615 52 161 4.0 7.0 0.00 0.00 0.00 67 986.8
20260508125114 52 162 4.0 6.0 0.00 0.00 0.00 69 986.8
20260508124614 51 159 5.0 6.0 0.00 0.00 0.00 70 986.8
20260508124115 50 151 4.0 6.0 0.00 0.00 0.00 72 986.8
20260508123615 50 164 3.0 5.0 0.00 0.00 0.00 72 986.9
20260508123115 49 157 5.0 6.0 0.00 0.00 0.00 72 986.8
20260508122615 49 153 3.0 5.0 0.00 0.00 0.00 72 986.7
20260508122115 48 154 4.0 5.0 0.00 0.00 0.00 73 986.7
20260508121615 48 151 4.0 5.0 0.00 0.00 0.00 74 986.7
20260508121115 47 153 3.0 5.0 0.00 0.00 0.00 76 986.7
20260508120115 46 151 3.0 5.0 0.00 0.00 0.00 78 986.7
20260508115615 46 158 3.0 5.0 0.00 0.00 0.00 79 986.8
20260508115114 46 164 2.0 3.0 0.00 0.00 0.00 81 986.8
20260508114614 46 149 3.0 5.0 0.00 0.00 0.00 82 986.8
20260508114115 46 156 3.0 5.0 0.00 0.00 0.00 82 986.8
20260508113615 46 154 3.0 5.0 0.00 0.00 0.00 81 986.7
20260508113115 46 155 3.0 5.0 0.00 0.00 0.00 79 986.6
20260508112614 46 158 3.0 5.0 0.00 0.00 0.00 78 986.6
20260508111615 47 163 2.0 3.0 0.00 0.00 0.00 73 986.5
20260508111114 46 177 0.0 1.0 0.00 0.00 0.00 75 986.6
20260508110614 46 177 0.0 0.0 0.00 0.00 0.00 74 986.6
20260508110115 47 177 0.0 0.0 0.00 0.00 0.00 74 986.6
20260508105615 47 177 0.0 0.0 0.00 0.00 0.00 74 986.4
20260508105115 47 177 0.0 3.0 0.00 0.00 0.00 75 986.2
20260508104615 47 162 2.0 5.0 0.00 0.00 0.00 74 986.1
20260508103615 47 167 3.0 3.0 0.00 0.00 0.00 74 986.2
20260508103115 46 166 1.0 2.0 0.00 0.00 0.00 75 986.2
20260508102615 46 165 0.0 2.0 0.00 0.00 0.00 76 986.2
20260508102115 46 174 0.0 1.0 0.00 0.00 0.00 77 986.3
20260508101614 46 253 1.0 3.0 0.00 0.00 0.00 77 986.3
20260508100614 46 164 3.0 3.0 0.00 0.00 0.00 76 986.2
20260508100114 46 164 2.0 3.0 0.00 0.00 0.00 76 986.2
20260508095615 46 164 2.0 3.0 0.00 0.00 0.00 76 986.2
20260508095115 46 163 3.0 3.0 0.00 0.00 0.00 75 986.2
20260508094615 46 172 3.0 5.0 0.00 0.00 0.00 74 986.2
20260508094115 46 204 0.0 1.0 0.00 0.00 0.00 73 986.3
20260508093615 46 244 0.0 1.0 0.00 0.00 0.00 73 986.3
20260508092615 46 189 0.0 0.0 0.00 0.00 0.00 76 986.3
20260508091614 45 183 0.0 2.0 0.00 0.00 0.00 76 986.3
20260508090614 45 172 2.0 3.0 0.00 0.00 0.00 75 986.3
20260508090114 45 174 1.0 2.0 0.00 0.00 0.00 76 986.3
20260508085615 45 184 1.0 2.0 0.00 0.00 0.00 77 986.3
20260508085115 45 192 0.0 1.0 0.00 0.00 0.00 76 986.3
20260508084114 44 269 0.0 1.0 0.00 0.00 0.00 75 986.3
20260508083115 44 178 0.0 2.0 0.00 0.00 0.00 75 986.3
20260508082615 44 277 0.0 1.0 0.00 0.00 0.00 74 986.4
20260508082114 45 276 0.0 0.0 0.00 0.00 0.00 74 986.5
20260508081114 44 300 0.0 1.0 0.00 0.00 0.00 75 986.3
20260508080614 44 260 1.0 2.0 0.00 0.00 0.00 76 986.3
20260508080114 44 281 0.0 0.0 0.00 0.00 0.00 76 986.4
20260508075614 44 313 0.0 1.0 0.00 0.00 0.00 77 986.5
20260508075115 44 183 0.0 0.0 0.00 0.00 0.00 78 986.5
20260508074615 44 183 0.0 0.0 0.00 0.00 0.00 76 986.5
20260508074114 44 183 0.0 0.0 0.00 0.00 0.00 76 986.4
20260508073614 45 183 0.0 1.0 0.00 0.00 0.00 75 986.4
20260508073114 45 173 0.0 3.0 0.00 0.00 0.00 74 986.4
20260508072614 45 173 2.0 3.0 0.00 0.00 0.00 73 986.3
20260508072114 46 181 0.0 3.0 0.00 0.00 0.00 70 986.4
20260508071614 46 246 0.0 1.0 0.00 0.00 0.00 70 986.4
20260508071114 46 278 0.0 2.0 0.00 0.00 0.00 70 986.5
20260508070114 46 218 0.0 1.0 0.00 0.00 0.00 69 986.6
20260508065614 46 275 0.0 1.0 0.00 0.00 0.00 69 986.7
20260508064615 45 293 0.0 2.0 0.00 0.00 0.00 72 986.8
20260508063614 45 294 0.0 1.0 0.00 0.00 0.00 72 986.9
20260508063115 45 219 0.0 0.0 0.00 0.00 0.00 72 986.9
20260508062615 45 219 0.0 1.0 0.00 0.00 0.00 72 986.9
20260508062115 45 201 0.0 1.0 0.00 0.00 0.00 73 987.0
20260508061615 46 258 0.0 2.0 0.00 0.00 0.00 73 987.1
20260508061114 46 244 0.0 2.0 0.00 0.00 0.00 71 987.2
20260508060614 46 232 0.0 1.0 0.00 0.00 0.00 72 987.2
20260508060114 46 182 0.0 1.0 0.00 0.00 0.00 70 987.2
20260508055614 46 245 0.0 2.0 0.00 0.00 0.00 69 987.3
20260508055114 46 303 0.0 2.0 0.00 0.00 0.00 69 987.2
20260508054614 46 267 1.0 2.0 0.00 0.00 0.00 68 987.2
20260508054115 46 260 0.0 2.0 0.00 0.00 0.00 69 987.2
20260508053614 46 245 0.0 1.0 0.00 0.00 0.00 68 987.2
20260508053114 46 262 0.0 1.0 0.00 0.00 0.00 68 987.2
20260508052614 47 192 0.0 2.0 0.00 0.00 0.00 68 987.2
20260508052114 47 261 1.0 2.0 0.00 0.00 0.00 68 987.1
20260508051614 47 289 0.0 1.0 0.00 0.00 0.00 68 987.2
20260508051114 47 235 0.0 0.0 0.00 0.00 0.00 68 987.2
20260508050614 48 235 0.0 0.0 0.00 0.00 0.00 67 987.2
20260508050114 48 235 0.0 2.0 0.00 0.00 0.00 65 987.2
20260508045614 48 260 0.0 3.0 0.00 0.00 0.00 64 987.2
20260508045114 48 203 0.0 2.0 0.00 0.00 0.00 64 987.1
20260508044114 47 207 1.0 2.0 0.00 0.00 0.00 66 987.1
20260508043614 47 200 0.0 2.0 0.00 0.00 0.00 66 987.0
20260508043114 47 208 1.0 2.0 0.00 0.00 0.00 66 987.0
20260508042614 48 198 1.0 3.0 0.00 0.00 0.00 66 987.1
20260508042114 48 258 0.0 2.0 0.00 0.00 0.00 66 987.2
20260508041614 48 244 1.0 3.0 0.00 0.00 0.00 65 987.2
20260508040614 48 241 1.0 2.0 0.00 0.00 0.00 65 987.1
20260508040114 48 236 1.0 3.0 0.00 0.00 0.00 64 987.1
20260508035614 48 240 1.0 3.0 0.00 0.00 0.00 65 987.1
20260508034614 47 281 0.0 1.0 0.00 0.00 0.00 67 987.1
20260508034114 47 285 0.0 2.0 0.00 0.00 0.00 67 987.0